{"data":{"norad_id":56693,"epoch":"2026-05-25T05:13:20.060256Z","epoch_age_seconds":53460,"freshness":"FRESH","line1":"1 56693U 23067F   26145.21759329  .00006235  00000+0  23586-3 0  9995","line2":"2 56693  43.0029 209.1235 0001388 265.3870  94.6823 15.27584900167289","mean_motion":15.275849,"eccentricity":0.0001388,"inclination_deg":43.0029,"raan_deg":209.1235,"arg_perigee_deg":265.387,"mean_anomaly_deg":94.6823,"bstar":0.00023586,"rev_number":16728,"period_min":94.266446336305,"perigee_km":482.0820931225,"apogee_km":483.98675430972,"semimajor_km":6861.1714237161,"source":"CELESTRAK","updated_at":"2026-05-25T13:38:18.119820Z"}}